Regional Weather Roundup
Issued by NWS

Home | Current Version | Previous Version | Text Only | Print | Product List | Glossary On
Versions: 1 2 3 4 5 6 7 8 9 10 11 12 13 14 15 16 17 18 19 20 21 22 23 24 25 26 27
000
ASUS44 KBMX 281210
RWRAL

ALABAMA REGIONAL WEATHER ROUNDUP
NATIONAL WEATHER SERVICE BIRMINGHAM AL
700 AM CDT THU JUL 28 2016

NOTE: "FAIR" INDICATES FEW OR NO CLOUDS BELOW 12,000 FEET
WITH NO SIGNIFICANT WEATHER AND/OR OBSTRUCTIONS TO VISIBILITY.

THE REMARK "TC" DENOTES TEMPERATURE IN DEGREES CELSIUS.

ALZ001>011-014-016>018-020-281300-
NORTH ALABAMA

CITY           SKY/WX    TMP DP  RH WIND       PRES   REMARKS
MUSCLE SHOALS  LGT RAIN  75  72  90 S9        29.96S FOG
6HR MIN TEMP:  75; 6HR MAX TEMP:  77; 6HR PCP: TRACE;

HUNTSVILLE     CLOUDY    76  70  82 S8        29.98R
6HR MIN TEMP:  76; 6HR MAX TEMP:  79; 6HR PCP: TRACE;

DECATUR        CLOUDY    75  72  90 S10       29.98R
6HR MIN TEMP:  75; 6HR MAX TEMP:  78; 6HR PCP: TRACE;

HALEYVILLE     LGT RAIN  73  72  96 SW12      30.01R
6HR MIN TEMP:  73; 6HR MAX TEMP:  75;

GADSDEN        CLOUDY    75  72  90 SW5         N/A
6HR MIN TEMP:  74; 6HR MAX TEMP:  75;

$$

ALZ012-013-022-023-030>036-040>044-281300-
WEST CENTRAL ALABAMA

CITY           SKY/WX    TMP DP  RH WIND       PRES   REMARKS
TUSCALOOSA     MOSUNNY   74  73  97 S6        30.02R
6HR MIN TEMP:  74; 6HR MAX TEMP:  75;

$$

ALZ015-024>027-033>036-040>044-281300-
CENTRAL ALABAMA

CITY           SKY/WX    TMP DP  RH WIND       PRES   REMARKS
BIRMINGHAM     CLOUDY    76  71  85 SW12      30.05R
6HR MIN TEMP:  76; 6HR MAX TEMP:  77;

MONTGOMERY     SUNNY     75  71  87 S5        30.05R
6HR MIN TEMP:  72; 6HR MAX TEMP:  75;

SHELBY CO ARPT CLOUDY    74  71  91 S6        30.04R
6HR MIN TEMP:  73; 6HR MAX TEMP:  74;

MAXWELL AFB    SUNNY     74  72  93 SW2       30.04S
6HR MIN TEMP:  71; 6HR MAX TEMP:  74;

GREENVILLE     CLOUDY    74  71  91 W6        30.06S FOG
6HR MIN TEMP:  72; 6HR MAX TEMP:  74;

$$

ALZ019-021-028-029-037-038-045>048-281300-
EAST CENTRAL ALABAMA

CITY           SKY/WX    TMP DP  RH WIND       PRES   REMARKS
ANNISTON       CLOUDY    75  70  84 SW7       30.05R
6HR MIN TEMP:  75; 6HR MAX TEMP:  76;

ALEXANDER CITY PTSUNNY   73  73 100 CALM      30.06S
6HR MIN TEMP:  67; 6HR MAX TEMP:  73;

AUBURN         SUNNY     73  71  93 S7        30.08S
6HR MIN TEMP:  71; 6HR MAX TEMP:  76;

$$

ALZ051>064-281300-
SOUTHWEST ALABAMA

CITY           SKY/WX    TMP DP  RH WIND       PRES   REMARKS
MOBILE         PTCLDY    77  74  90 CALM      30.06S
6HR MIN TEMP:  73; 6HR MAX TEMP:  77;

BROOKLEY FIELD PTCLDY    77  76  96 CALM      30.06S
6HR MIN TEMP:  74; 6HR MAX TEMP:  77;

EVERGREEN      FOG       73  72  96 CALM      30.07S VSB 1/4
6HR MIN TEMP:  70; 6HR MAX TEMP:  73;

$$

ALZ049-050-065>069-281300-
SOUTHEAST ALABAMA

CITY           SKY/WX    TMP DP  RH WIND       PRES   REMARKS
DOTHAN         SUNNY     76  73  91 W6        30.10R
6HR MIN TEMP:  74; 6HR MAX TEMP:  77;

OZARK          SUNNY     74  74 100 W2        30.06S
6HR MIN TEMP:  73; 6HR MAX TEMP:  76;

TROY           SUNNY     72  71  97 CALM      30.07S
6HR MIN TEMP:  70; 6HR MAX TEMP:  73;

EUFAULA        FAIR      76  73  91 VRB3      30.05S
6HR MIN TEMP:  72; 6HR MAX TEMP:  76;

$$




USA.gov is the U.S. government's official web portal to all federal, state and local government web resources and services.